Tracking 21076 objects as of 9-Aug-2020
HD Live streaming from Space Station
objects crossing your sky now
Track the most recent launched group of Starlink satellites

MOLNIYA 1-75

Track MOLNIYA 1-75 now!
MOLNIYA 1-75 is classified as:


NORAD ID: 19807
Int'l Code: 1989-014A
Perigee: 1,465.1 km
Apogee: 38,919.1 km
Inclination: 64.4 °
Period: 718.1 minutes
Semi major axis: 26563 km
RCS: 12.6191 m2 (large)
Launch date: February 15, 1989
Source: Commonwealth of Independent States (former USSR) (CIS)
Launch site: TYURATAM MISSILE AND SPACE COMPLEX (TTMTR)
aabbcc
Your satellite tracking list
Your tracking list is empty




NASA's NSSDC Master Catalog

Two Line Element Set (TLE):
1 19807U 89014A   20218.67419778  .00000336  00000-0  00000+0 0  9990
2 19807  64.3786   5.4026 7050008 271.0300  16.2814  2.00532854230423
Source of the keplerian elements: AFSPC